Regional Weather Roundup
Issued by NWS

Home | Current Version | Previous Version | Graphics & Text | Print | Product List | Glossary Off
Versions: 1 2 3 4 5 6 7 8 9 10 11 12 13 14 15 16 17 18 19 20 21 22 23 24 25 26 27 28 29 30 31 32 33 34 35 36 37 38 39 40 41 42 43 44 45 46 47 48 49 50

000
ASUS43 KLSX 291507
RWRMO

WEATHER SUMMARY FOR MISSOURI
NATIONAL WEATHER SERVICE SPRINGFIELD MO
900 AM CST MON DEC 29 2014

NOTE: "FAIR" INDICATES FEW OR NO CLOUDS BELOW 12,000 FEET WITH NO
       SIGNIFICANT WEATHER AND/OR OBSTRUCTIONS TO VISIBILITY.
       CURRENT SKY AND/OR WEATHER CONDITIONS ARE NOT AVAILABLE FOR
       CHILLICOTHE AND FARMINGTON.

MOZ001>031-035>038-043-044-053-054-291600-
...NORTHERN AND WESTERN MISSOURI...

CITY           SKY/WX    TMP DP  RH WIND       PRES   REMARKS
KANSAS CTY INT PTSUNNY   29  24  82 NE5       30.30R WCI  24
KANSAS C DTWN  SUNNY     29  23  78 N5        30.31R WCI  24
LEE`S SUMMIT   SUNNY     27  22  81 E5        30.29R WCI  22
ST JOSEPH      CLOUDY    28  25  88 CALM      30.31R
CHILLICOTHE      N/A     29  23  78 NE3       30.33R
KIRKSVILLE     SUNNY     28  22  78 NE6       30.32R WCI  22

$$
MOZ066>068-077>081-088>096-101>105-291600-
...SOUTHWEST MISSOURI...

CITY           SKY/WX    TMP DP  RH WIND       PRES   REMARKS
SPRINGFIELD    SUNNY     29  25  85 E6        30.24R WCI  23
JOPLIN         SUNNY     28  24  85 E6        30.24R WCI  22

$$
MOZ032>034-039>042-045>050-055>058-069>072-291600-
...CENTRAL MISSOURI...

CITY           SKY/WX    TMP DP  RH WIND       PRES   REMARKS
COLUMBIA       SUNNY     29  26  89 E3        30.30R
JEFFERSON CITY SUNNY     24  21  88 CALM      30.33R
ROLLA          SUNNY     27  24  89 E5        30.26R WCI  22
SEDALIA        SUNNY     29  24  82 CALM      30.31R
WHITEMAN AFB   SUNNY     25  21  86 E3        30.29R
WARRENSBURG    SUNNY     25  21  86 CALM      30.30R
OSAGE BEACH    SUNNY     21  19  93 CALM      30.29R

$$
MOZ051-052-059>065-291600-
...EAST CENTRAL MISSOURI...

CITY           SKY/WX    TMP DP  RH WIND       PRES   REMARKS
ST LOUIS INTL  MOSUNNY   29  24  82 NE5       30.32R HAZE    WCI  24
SPIRIT OF STL  FOG       25  21  86 CALM      30.33R VSB<1/4
ST CHARLES     SUNNY     29  26  89 NE5       30.33R WCI  24

$$
MOZ072>076-082>087-097>100-106>115-291600-
...SOUTH CENTRAL AND SOUTHEAST MISSOURI...

CITY           SKY/WX    TMP DP  RH WIND       PRES   REMARKS
CAPE GIRARDEAU CLOUDY    31  25  78 NE8       30.29R WCI  23
POPLAR BLUFF   CLOUDY    31  24  75 NE9       30.29R WCI  23
WEST PLAINS    CLOUDY    25  23  92 NE7       30.25R FOG     WCI  17

$$


USA.gov is the U.S. government's official web portal to all federal, state and local government web resources and services.